Regional Weather Roundup
Issued by NWS

Home | Current Version | Previous Version | Text Only | Print | Product List | Glossary Off
Versions: 1 2 3 4 5 6 7 8 9 10 11 12 13 14 15 16 17 18 19 20 21 22 23 24 25 26 27 28 29 30 31 32 33 34 35 36 37 38 39 40 41 42 43 44 45 46 47 48 49 50

617
ASUS43 KBIS 231310
RWRND
NORTH DAKOTA REGIONAL WEATHER ROUNDUP
NATIONAL WEATHER SERVICE EASTERN NORTH DAKOTA/GRAND FORKS ND
800 AM CDT WED MAY 23 2018

  NOTE: "FAIR" INDICATES FEW OR NO CLOUDS BELOW 12,000 FEET WITH NO
  SIGNIFICANT WEATHER AND/OR OBSTRUCTIONS TO VISIBILITY.

NDZ001>003-009>011-017-231400-
...NORTHWEST NORTH DAKOTA...

CITY           SKY/WX    TMP DP  RH WIND       PRES   REMARKS
WILLISTON      FAIR      65  55  70 CALM      29.92S
MINOT          FAIR      64  55  72 E3        29.95F
MINOT AFB      FAIR      64  56  74 E9        29.94F
$$

NDZ018>021-031>035-040>046-231400-
...SOUTHWEST NORTH DAKOTA...

CITY           SKY/WX    TMP DP  RH WIND       PRES   REMARKS
BISMARCK       FAIR      62  59  90 E10       29.92F
DICKINSON      FAIR      60  56  86 NE5       29.90S
GARRISON         N/A     63  58  83 E9        29.93F
HETTINGER      CLOUDY    60  58  92 S7        29.91R FOG
$$

NDZ004>008-012>016-024-026-027-054-231400-
...NORTHEAST NORTH DAKOTA...

CITY           SKY/WX    TMP DP  RH WIND       PRES   REMARKS
GRAND FORKS    FAIR      65  58  78 SE9       30.02R
GRAND FORKS AF FAIR      66  58  75 SE8       30.03R
DEVILS LAKE    PTSUNNY   64  57  78 SE13      30.00S
$$

NDZ022-023-025-028>030-036>039-047>053-231400-
...SOUTHEAST NORTH DAKOTA...

CITY           SKY/WX    TMP DP  RH WIND       PRES   REMARKS
JAMESTOWN      FAIR      63  58  83 SE10      29.99S
FARGO          FAIR      68  58  70 S17       30.03R
WAHPETON       PTSUNNY   64  55  72 SE9       30.06S
$$




USA.gov is the U.S. government's official web portal to all federal, state and local government web resources and services.